GW2992 Weather Reports


Display with metric or nautical units.
time (UTC)temp
F
wind
direction
speed
MPH
gust
MPH
rain 1hr
in
rain 24hr
in
rain mn
in
humidity
%
barometer
mb
20260507130648 58 71 1.0 1.0 0.00 0.00 0.00 98 1014.8
20260507130146 58 77 1.0 1.0 0.00 0.00 0.00 98 1014.9
20260507125645 58 101 2.0 2.0 0.00 0.00 0.00 98 1014.7
20260507125142 58 80 1.0 2.0 0.00 0.00 0.00 98 1014.7
20260507124638 58 74 1.0 1.0 0.00 0.00 0.00 97 1014.6
20260507124136 58 78 1.0 1.0 0.00 0.00 0.00 97 1014.6
20260507123634 58 74 1.0 1.0 0.00 0.00 0.00 97 1014.6
20260507123131 58 98 2.0 3.0 0.00 0.00 0.00 97 1014.5
20260507122626 58 102 2.0 2.0 0.00 0.00 0.00 97 1014.5
20260507122122 58 72 1.0 1.0 0.00 0.00 0.00 97 1014.5
20260507121618 58 63 1.0 1.0 0.00 0.00 0.00 98 1014.7
20260507121114 58 59 1.0 1.0 0.00 0.00 0.00 98 1014.4
20260507120610 58 73 1.0 1.0 0.00 0.00 0.00 98 1014.6
20260507120107 58 73 1.0 1.0 0.00 0.00 0.00 98 1014.5
20260507115603 58 91 2.0 2.0 0.00 0.00 0.00 97 1014.5
20260507115059 58 72 1.0 1.0 0.00 0.00 0.00 97 1014.4
20260507114555 58 74 2.0 2.0 0.00 0.00 0.00 97 1014.7
20260507114053 58 89 2.0 2.0 0.00 0.00 0.00 97 1014.4
20260507113549 58 88 1.0 2.0 0.00 0.00 0.00 97 1014.6
20260507113047 58 67 1.0 1.0 0.00 0.00 0.00 97 1014.6
20260507112545 58 82 2.0 2.0 0.00 0.00 0.00 97 1014.7
20260507112041 58 61 1.0 1.0 0.00 0.00 0.00 97 1014.6
20260507111538 58 92 2.0 2.0 0.00 0.00 0.00 97 1014.6
20260507111035 58 70 1.0 2.0 0.00 0.00 0.00 97 1014.8
20260507110531 58 53 0.0 0.0 0.00 0.00 0.00 97 1014.9
20260507110028 58 53 0.0 0.0 0.00 0.00 0.00 97 1014.7
20260507105525 59 54 0.0 0.0 0.00 0.00 0.00 97 1014.7
20260507105021 59 54 0.0 1.0 0.00 0.00 0.00 97 1014.6
20260507104519 59 47 0.0 0.0 0.00 0.00 0.00 97 1014.8
20260507104015 59 58 1.0 1.0 0.00 0.00 0.00 97 1014.9
20260507103511 59 44 1.0 1.0 0.00 0.00 0.00 98 1014.9
20260507103007 59 38 0.0 1.0 0.00 0.00 0.00 98 1014.9
20260507102504 59 39 1.0 1.0 0.00 0.00 0.00 98 1014.8
20260507102000 59 52 1.0 1.0 0.00 0.00 0.00 98 1015.0
20260507101455 59 55 1.0 1.0 0.00 0.00 0.00 99 1014.9
20260507100953 59 52 1.0 1.0 0.00 0.00 0.00 99 1014.9
20260507100450 59 83 1.0 2.0 0.00 0.00 0.00 99 1015.2
20260507095948 59 34 0.0 0.0 0.00 0.00 0.00 99 1015.1
20260507095445 59 47 1.0 1.0 0.00 0.00 0.00 99 1015.1
20260507094942 59 41 1.0 1.0 0.00 0.00 0.00 99 1015.0
20260507094438 59 102 2.0 2.0 0.00 0.00 0.00 99 1015.0
20260507093935 59 72 1.0 1.0 0.00 0.00 0.00 99 1015.2
20260507093433 59 45 1.0 1.0 0.00 0.00 0.00 99 1015.2
20260507092931 59 48 1.0 1.0 0.00 0.00 0.00 99 1015.3
20260507092426 59 40 0.0 0.0 0.00 0.00 0.00 99 1015.1
20260507091918 60 83 1.0 1.0 0.00 0.00 0.00 99 1015.3
20260507091415 59 47 0.0 1.0 0.00 0.00 0.00 99 1015.4
20260507090910 59 46 0.0 0.0 0.00 0.00 0.00 99 1015.3
20260507090407 60 45 0.0 0.0 0.00 0.00 0.00 99 1015.3
20260507085904 60 38 0.0 0.0 0.00 0.00 0.00 99 1015.3
20260507085400 60 35 0.0 0.0 0.00 0.00 0.00 99 1015.2
20260507084858 60 44 0.0 0.0 0.00 0.00 0.00 99 1015.5
20260507084354 60 37 0.0 0.0 0.00 0.00 0.00 99 1015.6
20260507083851 60 50 0.0 0.0 0.00 0.00 0.00 99 1015.4
20260507083348 60 45 0.0 1.0 0.00 0.00 0.00 98 1015.6
20260507082844 60 53 0.0 1.0 0.00 0.00 0.00 99 1015.5
20260507082340 60 50 0.0 0.0 0.00 0.00 0.00 98 1015.6
20260507081837 60 45 0.0 0.0 0.00 0.00 0.00 98 1015.7
20260507081333 60 45 0.0 0.0 0.00 0.00 0.00 98 1015.6
20260507080830 60 45 0.0 0.0 0.00 0.00 0.00 98 1015.7
20260507080326 60 41 0.0 1.0 0.00 0.00 0.00 98 1015.8
20260507075822 60 36 0.0 0.0 0.00 0.00 0.00 98 1015.9
20260507075318 59 47 0.0 0.0 0.00 0.00 0.00 98 1015.9
20260507074815 60 45 0.0 1.0 0.00 0.00 0.00 98 1015.9
20260507074312 60 40 1.0 1.0 0.00 0.00 0.00 98 1015.9
20260507073809 60 37 0.0 0.0 0.00 0.00 0.00 97 1016.1
20260507073306 60 95 2.0 2.0 0.00 0.00 0.00 98 1016.2
20260507072803 60 69 1.0 1.0 0.00 0.00 0.00 98 1015.9
20260507072301 60 69 0.0 1.0 0.00 0.00 0.00 97 1015.9
20260507071758 60 67 0.0 0.0 0.00 0.00 0.00 98 1016.1
20260507071254 60 64 0.0 1.0 0.00 0.00 0.00 97 1016.0
20260507070751 60 61 0.0 0.0 0.00 0.00 0.00 98 1016.2
20260507070248 60 62 1.0 1.0 0.00 0.00 0.00 98 1016.1
20260507065745 60 47 1.0 1.0 0.00 0.00 0.00 98 1016.1
20260507065241 60 308 0.0 1.0 0.00 0.00 0.00 98 1016.0
20260507064739 60 320 0.0 0.0 0.00 0.00 0.00 97 1015.9
20260507064238 60 324 1.0 1.0 0.00 0.00 0.00 97 1015.9
20260507063735 60 330 0.0 0.0 0.00 0.00 0.00 97 1016.0
20260507063231 60 325 0.0 0.0 0.00 0.00 0.00 97 1016.1
20260507062728 60 325 0.0 0.0 0.00 0.00 0.00 97 1016.1
20260507062226 60 324 0.0 0.0 0.00 0.00 0.00 97 1016.1
20260507061723 60 324 0.0 0.0 0.00 0.00 0.00 96 1015.9
20260507061221 60 324 0.0 0.0 0.00 0.00 0.00 96 1016.1
20260507060719 60 324 0.0 0.0 0.00 0.00 0.00 96 1016.2
20260507060215 60 324 0.0 0.0 0.00 0.00 0.00 96 1016.3
20260507055711 60 324 0.0 0.0 0.00 0.00 0.00 97 1016.2
20260507055207 60 324 0.0 0.0 0.00 0.00 0.00 97 1016.2
20260507054703 60 324 0.0 0.0 0.00 0.00 0.00 97 1016.1
20260507054200 60 324 0.0 0.0 0.00 0.00 0.00 97 1016.1
20260507053658 59 324 0.0 0.0 0.00 0.00 0.00 97 1016.2
20260507053156 60 324 0.0 0.0 0.00 0.00 0.00 97 1016.2
20260507052654 60 324 0.0 0.0 0.00 0.00 0.00 97 1016.1
20260507052150 60 324 0.0 0.0 0.00 0.00 0.00 97 1016.1
20260507051648 60 324 0.0 0.0 0.00 0.00 0.00 97 1016.1
20260507051144 60 324 0.0 0.0 0.00 0.00 0.00 96 1016.0
20260507050641 60 324 0.0 0.0 0.00 0.00 0.00 96 1016.0
20260507050138 60 324 0.0 0.0 0.00 0.00 0.00 95 1015.9
20260507045635 60 324 0.0 0.0 0.00 0.00 0.00 95 1015.8
20260507045132 61 324 0.0 0.0 0.00 0.00 0.00 95 1015.9
20260507044629 61 324 0.0 0.0 0.00 0.00 0.00 95 1015.9
20260507044125 61 324 0.0 0.0 0.00 0.00 0.00 95 1016.0
20260507043621 61 324 0.0 0.0 0.00 0.00 0.00 95 1015.9
20260507043119 61 324 0.0 0.0 0.00 0.00 0.00 95 1015.7
20260507042615 61 324 0.0 0.0 0.00 0.00 0.00 94 1015.8
20260507042110 61 324 0.0 0.0 0.00 0.00 0.00 94 1016.0
20260507041607 61 323 0.0 1.0 0.00 0.00 0.00 94 1015.7
20260507041104 61 324 0.0 0.0 0.00 0.00 0.00 94 1015.9
20260507040601 61 324 0.0 0.0 0.00 0.00 0.00 94 1015.8
20260507040057 62 324 0.0 0.0 0.00 0.00 0.00 94 1015.7
20260507035553 62 324 0.0 0.0 0.00 0.00 0.00 94 1015.8
20260507035049 62 324 0.0 0.0 0.00 0.00 0.00 94 1015.7
20260507034546 62 324 0.0 0.0 0.00 0.00 0.00 94 1015.7
20260507034044 62 324 0.0 0.0 0.00 0.00 0.00 94 1015.7
20260507033542 62 323 0.0 0.0 0.00 0.00 0.00 93 1015.8
20260507033039 62 302 1.0 2.0 0.00 0.00 0.00 93 1015.5
20260507032536 63 322 1.0 1.0 0.00 0.00 0.00 94 1015.9
20260507032032 63 319 0.0 1.0 0.00 0.00 0.00 93 1015.6
20260507031528 63 304 2.0 2.0 0.00 0.00 0.00 93 1015.5
20260507031026 63 313 1.0 2.0 0.00 0.00 0.00 93 1015.6
20260507030522 63 304 2.0 2.0 0.00 0.00 0.00 92 1015.5
20260507030021 63 315 0.0 1.0 0.00 0.00 0.00 92 1015.4
20260507025517 64 314 1.0 1.0 0.00 0.00 0.00 92 1015.1
20260507025014 64 308 1.0 1.0 0.00 0.00 0.00 92 1015.2
20260507024511 64 296 1.0 2.0 0.00 0.00 0.00 91 1015.2
20260507024003 64 307 1.0 1.0 0.00 0.00 0.00 91 1015.1
20260507023459 64 302 1.0 1.0 0.00 0.00 0.00 91 1014.9
20260507022956 65 287 1.0 2.0 0.00 0.00 0.00 90 1015.2
20260507022453 65 276 2.0 2.0 0.00 0.00 0.00 89 1015.0
20260507021948 65 295 3.0 3.0 0.00 0.00 0.00 89 1015.0
20260507021444 65 303 2.0 3.0 0.00 0.00 0.00 87 1015.2
20260507020942 66 263 1.0 2.0 0.00 0.00 0.00 85 1014.9
20260507020438 66 317 2.0 3.0 0.00 0.00 0.00 84 1015.1
20260507015935 67 296 4.0 6.0 0.00 0.00 0.00 82 1014.9
20260507015433 68 292 2.0 3.0 0.00 0.00 0.00 81 1015.2
20260507014924 68 326 1.0 1.0 0.00 0.00 0.00 79 1014.9
20260507014421 68 297 3.0 4.0 0.00 0.00 0.00 79 1015.0
20260507013917 69 274 2.0 3.0 0.00 0.00 0.00 76 1014.7
20260507013414 70 296 2.0 3.0 0.00 0.00 0.00 74 1014.7
20260507012911 70 271 2.0 2.0 0.00 0.00 0.00 73 1014.7
20260507012408 69 246 3.0 4.0 0.00 0.00 0.00 72 1014.8
20260507011859 70 281 4.0 4.0 0.00 0.00 0.00 70 1014.9
20260507011355 70 312 2.0 2.0 0.00 0.00 0.00 71 1014.7
20260507010849 71 310 3.0 4.0 0.00 0.00 0.00 70 1014.5
20260507010345 71 292 2.0 2.0 0.00 0.00 0.00 68 1014.6
20260507005843 70 327 3.0 4.0 0.00 0.00 0.00 68 1014.8
20260507005339 70 281 3.0 3.0 0.00 0.00 0.00 70 1014.6
20260507004836 71 295 6.0 8.0 0.00 0.00 0.00 68 1014.4
20260507004333 71 283 2.0 2.0 0.00 0.00 0.00 69 1014.7
20260507003830 71 271 4.0 4.0 0.00 0.00 0.00 67 1014.5
20260507003326 71 317 3.0 4.0 0.00 0.00 0.00 68 1014.5
20260507002821 71 290 4.0 4.0 0.00 0.00 0.00 67 1014.5
20260507002317 71 227 2.0 4.0 0.00 0.00 0.00 66 1014.5
20260507001815 70 279 4.0 6.0 0.00 0.00 0.00 67 1014.6
20260507001312 71 259 6.0 7.0 0.00 0.00 0.00 69 1014.5
20260507000808 71 287 2.0 2.0 0.00 0.00 0.00 68 1014.5
20260507000306 72 289 3.0 4.0 0.00 0.00 0.00 72 1014.3
20260506235800 72 317 4.0 6.0 0.00 0.00 0.00 71 1014.5
20260506235256 71 293 4.0 4.0 0.00 0.00 0.00 73 1014.5
20260506234753 71 239 3.0 3.0 0.00 0.00 0.00 74 1014.4
20260506234250 71 272 5.0 8.0 0.00 0.00 0.00 73 1014.3
20260506233743 72 330 6.0 8.0 0.00 0.00 0.00 73 1014.3
20260506233239 71 306 3.0 4.0 0.00 0.00 0.00 74 1014.3
20260506232735 72 307 5.0 7.0 0.00 0.00 0.00 72 1014.3
20260506232230 71 349 2.0 3.0 0.00 0.00 0.00 72 1014.5
20260506231728 72 290 6.0 8.0 0.00 0.00 0.00 68 1014.4
20260506231226 72 226 6.0 8.0 0.00 0.00 0.00 69 1014.5
20260506230723 71 297 2.0 3.0 0.00 0.00 0.00 74 1014.5
20260506230219 71 264 2.0 3.0 0.00 0.00 0.00 70 1014.2
20260506225715 71 320 4.0 6.0 0.00 0.00 0.00 70 1014.6
20260506225213 71 293 5.0 6.0 0.00 0.00 0.00 75 1014.7
20260506224709 72 339 5.0 7.0 0.00 0.00 0.00 73 1014.5
20260506224207 72 310 3.0 4.0 0.00 0.00 0.00 73 1014.7
20260506223703 71 340 2.0 3.0 0.00 0.00 0.00 74 1014.7
20260506223158 71 252 4.0 6.0 0.00 0.00 0.00 75 1014.8
20260506222656 72 299 6.0 7.0 0.00 0.00 0.00 72 1014.9
20260506222151 72 297 7.0 9.0 0.00 0.00 0.00 72 1015.0
20260506221650 73 268 4.0 4.0 0.00 0.00 0.00 73 1014.9
20260506221147 71 279 5.0 7.0 0.00 0.00 0.00 73 1015.0
20260506220644 72 295 4.0 7.0 0.00 0.00 0.00 73 1014.9
20260506220139 71 220 4.0 6.0 0.00 0.00 0.00 76 1015.1
20260506215636 70 297 5.0 7.0 0.00 0.00 0.00 76 1015.2
20260506215131 71 283 8.0 10.0 0.00 0.00 0.00 73 1015.2
20260506214628 72 273 5.0 8.0 0.00 0.00 0.00 71 1015.1
20260506214126 71 351 2.0 3.0 0.00 0.00 0.00 73 1015.1
20260506213624 71 317 6.0 8.0 0.00 0.00 0.00 73 1015.4
20260506213121 72 306 8.0 9.0 0.00 0.00 0.00 72 1015.2
20260506212618 71 282 4.0 4.0 0.00 0.00 0.00 74 1015.3
20260506212113 71 294 5.0 6.0 0.00 0.00 0.00 74 1015.6
20260506211608 72 298 5.0 7.0 0.00 0.00 0.00 72 1015.4
20260506211106 72 276 6.0 8.0 0.00 0.00 0.00 72 1015.5
20260506210602 72 300 3.0 4.0 0.00 0.00 0.00 70 1015.5
20260506210059 73 287 5.0 7.0 0.00 0.00 0.00 72 1015.6
20260506205556 72 274 7.0 10.0 0.00 0.00 0.00 71 1015.5
20260506205051 73 282 4.0 4.0 0.00 0.00 0.00 73 1015.7
20260506204549 71 296 4.0 7.0 0.00 0.00 0.00 73 1015.5
20260506204046 72 273 2.0 3.0 0.00 0.00 0.00 74 1015.6
20260506203544 72 294 4.0 7.0 0.00 0.00 0.00 73 1015.8
20260506203040 72 294 5.0 7.0 0.00 0.00 0.00 72 1015.5
20260506202538 72 210 3.0 3.0 0.00 0.00 0.00 70 1015.8
20260506202034 71 289 5.0 7.0 0.00 0.00 0.00 71 1015.8
20260506201532 71 294 6.0 9.0 0.00 0.00 0.00 72 1015.9
20260506201028 71 262 5.0 8.0 0.00 0.00 0.00 72 1015.9
20260506200524 72 296 6.0 9.0 0.00 0.00 0.00 72 1015.9
20260506200021 71 336 2.0 3.0 0.00 0.00 0.00 72 1015.8
20260506195518 72 318 6.0 8.0 0.00 0.00 0.00 73 1016.0
20260506195014 72 266 4.0 4.0 0.00 0.00 0.00 72 1015.9
20260506194512 72 276 6.0 7.0 0.00 0.00 0.00 72 1016.2
20260506194009 72 316 2.0 3.0 0.00 0.00 0.00 72 1016.2
20260506193506 70 314 5.0 6.0 0.00 0.00 0.00 74 1016.2
20260506193003 71 295 8.0 10.0 0.00 0.00 0.00 73 1016.3
20260506192500 72 337 4.0 6.0 0.00 0.00 0.00 70 1016.3
20260506191955 72 307 3.0 3.0 0.00 0.00 0.00 71 1016.0
20260506191453 71 329 4.0 6.0 0.00 0.00 0.00 72 1016.0
20260506190949 72 266 6.0 8.0 0.00 0.00 0.00 71 1016.2
20260506190446 71 233 5.0 6.0 0.00 0.00 0.00 72 1016.3
20260506185942 72 270 6.0 7.0 0.00 0.00 0.00 71 1016.2
20260506185439 70 217 4.0 4.0 0.00 0.00 0.00 73 1016.2
20260506184936 71 214 4.0 4.0 0.00 0.00 0.00 73 1016.3
20260506184433 71 285 6.0 8.0 0.00 0.00 0.00 72 1016.4
20260506183930 71 291 4.0 6.0 0.00 0.00 0.00 73 1016.5
20260506183425 71 266 2.0 2.0 0.00 0.00 0.00 73 1016.7
20260506182923 71 238 2.0 4.0 0.00 0.00 0.00 72 1016.7
20260506182420 71 282 4.0 7.0 0.00 0.00 0.00 72 1016.6
20260506181917 71 268 3.0 4.0 0.00 0.00 0.00 73 1016.7
20260506181415 70 313 4.0 6.0 0.00 0.00 0.00 73 1016.7
20260506180912 70 237 3.0 4.0 0.00 0.00 0.00 73 1016.6
20260506180408 70 235 5.0 6.0 0.00 0.00 0.00 73 1017.0
20260506175905 70 226 3.0 4.0 0.00 0.00 0.00 74 1016.9
20260506175401 70 271 6.0 9.0 0.00 0.00 0.00 75 1016.9
20260506174858 69 283 2.0 3.0 0.00 0.00 0.00 75 1017.1
20260506174356 70 295 2.0 2.0 0.00 0.00 0.00 75 1017.0
20260506173853 71 224 2.0 2.0 0.00 0.00 0.00 72 1016.8
20260506173350 69 62 2.0 2.0 0.00 0.00 0.00 75 1016.9
20260506172847 69 261 3.0 3.0 0.00 0.00 0.00 75 1017.0
20260506172343 69 332 1.0 1.0 0.00 0.00 0.00 77 1017.1
20260506171841 69 335 1.0 1.0 0.00 0.00 0.00 75 1017.1
20260506171338 70 316 3.0 4.0 0.00 0.00 0.00 76 1017.1
20260506170836 71 328 2.0 2.0 0.00 0.00 0.00 72 1017.1
20260506170332 70 339 1.0 1.0 0.00 0.00 0.00 68 1017.3
20260506165831 70 343 0.0 1.0 0.00 0.00 0.00 71 1017.2
20260506165328 69 346 0.0 0.0 0.00 0.00 0.00 72 1017.2
20260506164819 68 335 0.0 1.0 0.00 0.00 0.00 73 1017.3
20260506164316 67 335 2.0 2.0 0.00 0.00 0.00 75 1017.4
20260506163813 67 328 2.0 4.0 0.00 0.00 0.00 76 1017.3
20260506163308 69 337 2.0 2.0 0.00 0.00 0.00 74 1017.2
20260506162803 69 348 1.0 1.0 0.00 0.00 0.00 74 1017.3
20260506162301 68 342 2.0 2.0 0.00 0.00 0.00 75 1017.1
20260506161758 68 350 2.0 2.0 0.00 0.00 0.00 76 1017.3
20260506161256 68 5 1.0 1.0 0.00 0.00 0.00 75 1017.2
20260506160748 69 6 1.0 2.0 0.00 0.00 0.00 73 1017.3
20260506160244 68 11 0.0 0.0 0.00 0.00 0.00 74 1017.2
20260506155744 66 4 0.0 0.0 0.00 0.00 0.00 78 1017.3
20260506155240 69 25 2.0 2.0 0.00 0.00 0.00 75 1017.2
20260506153352 68 17 0.0 1.0 0.00 0.00 0.00 76 1017.2
20260506152849 67 39 3.0 3.0 0.00 0.00 0.00 77 1017.2
20260506152346 66 34 2.0 2.0 0.00 0.00 0.00 79 1017.3
20260506151845 65 27 0.0 0.0 0.00 0.00 0.00 80 1017.2
20260506151341 63 36 1.0 2.0 0.00 0.00 0.00 82 1017.4
20260506150839 64 39 1.0 2.0 0.00 0.00 0.00 82 1017.3
20260506150335 63 36 2.0 2.0 0.00 0.00 0.00 82 1017.1
20260506145832 62 43 2.0 3.0 0.00 0.00 0.00 83 1017.3
20260506145328 62 38 2.0 2.0 0.00 0.00 0.00 85 1017.3
20260506144826 62 37 2.0 2.0 0.00 0.00 0.00 85 1017.3
20260506144322 62 40 2.0 2.0 0.00 0.00 0.00 85 1017.2
20260506143821 61 38 3.0 3.0 0.00 0.00 0.00 86 1017.0
20260506143317 61 42 2.0 4.0 0.00 0.00 0.00 86 1017.2
20260506142816 60 33 1.0 1.0 0.00 0.00 0.00 87 1016.9
20260506142314 60 37 2.0 2.0 0.00 0.00 0.00 88 1017.1
20260506141812 59 42 4.0 4.0 0.00 0.00 0.00 88 1016.9
20260506141309 59 34 1.0 1.0 0.00 0.00 0.00 89 1017.0
20260506140807 59 32 2.0 2.0 0.00 0.00 0.00 89 1016.9
20260506140303 58 44 2.0 3.0 0.00 0.00 0.00 90 1017.1
20260506135801 58 39 3.0 3.0 0.00 0.00 0.00 90 1017.0
20260506135256 57 36 2.0 3.0 0.00 0.00 0.00 92 1016.8
20260506134754 56 34 2.0 2.0 0.00 0.00 0.00 93 1016.8
20260506134250 56 39 2.0 2.0 0.00 0.00 0.00 93 1016.6
20260506133747 56 35 2.0 2.0 0.00 0.00 0.00 93 1016.9
20260506133244 56 35 2.0 2.0 0.00 0.00 0.00 94 1016.8
20260506132741 56 36 1.0 1.0 0.00 0.00 0.00 94 1016.5
20260506132238 56 33 2.0 3.0 0.00 0.00 0.00 94 1016.8
20260506131736 55 36 2.0 3.0 0.00 0.00 0.00 94 1017.0
20260506131232 56 33 2.0 2.0 0.00 0.00 0.00 94 1016.7